TimeEST,TemperatureF,Dew PointF,Humidity,Sea Level PressureIn,VisibilityMPH,Wind Direction,Wind SpeedMPH,Gust SpeedMPH,PrecipitationIn,Events,Conditions,WindDirDegrees,DateUTC
12:53 AM,71.1,68.0,90,30.01,9.0,South,4.6,-,N/A,,Partly Cloudy,190,2013-02-13 05:53:00
1:53 AM,71.1,68.0,90,30.00,9.0,South,3.5,-,N/A,,Mostly Cloudy,190,2013-02-13 06:53:00
2:53 AM,71.1,68.0,90,29.99,9.0,South,3.5,-,N/A,,Scattered Clouds,170,2013-02-13 07:53:00
3:53 AM,72.0,69.1,91,29.98,9.0,South,3.5,-,N/A,,Partly Cloudy,190,2013-02-13 08:53:00
4:53 AM,72.0,69.1,91,29.98,9.0,Calm,Calm,-,N/A,,Partly Cloudy,0,2013-02-13 09:53:00
5:53 AM,72.0,69.1,91,29.99,10.0,South,3.5,-,N/A,,Partly Cloudy,170,2013-02-13 10:53:00
6:53 AM,72.0,69.1,91,29.99,10.0,South,3.5,-,N/A,,Partly Cloudy,170,2013-02-13 11:53:00
7:53 AM,75.0,70.0,84,30.00,10.0,South,8.1,-,N/A,,Partly Cloudy,170,2013-02-13 12:53:00
8:53 AM,77.0,70.0,79,30.00,10.0,South,10.4,-,N/A,,Scattered Clouds,180,2013-02-13 13:53:00
9:20 AM,78.8,69.8,74,30.01,10.0,SSW,11.5,-,N/A,,Mostly Cloudy,200,2013-02-13 14:20:00
9:53 AM,80.1,69.1,69,30.01,10.0,South,15.0,19.6,N/A,,Mostly Cloudy,180,2013-02-13 14:53:00
10:53 AM,81.0,70.0,69,30.01,10.0,South,11.5,-,N/A,,Mostly Cloudy,190,2013-02-13 15:53:00
11:53 AM,82.0,69.1,65,29.99,10.0,South,12.7,20.7,N/A,,Mostly Cloudy,190,2013-02-13 16:53:00
12:53 PM,82.9,70.0,65,29.97,10.0,South,15.0,20.7,N/A,,Mostly Cloudy,190,2013-02-13 17:53:00
1:53 PM,82.9,69.1,63,29.94,10.0,South,13.8,24.2,N/A,,Mostly Cloudy,180,2013-02-13 18:53:00
2:53 PM,82.9,68.0,60,29.92,10.0,South,16.1,21.9,N/A,,Scattered Clouds,170,2013-02-13 19:53:00
3:53 PM,82.0,69.1,65,29.91,10.0,South,13.8,23.0,N/A,,Partly Cloudy,180,2013-02-13 20:53:00
4:53 PM,80.1,69.1,69,29.91,10.0,South,13.8,21.9,N/A,,Partly Cloudy,190,2013-02-13 21:53:00
5:53 PM,78.1,69.1,74,29.92,10.0,South,12.7,-,N/A,,Partly Cloudy,190,2013-02-13 22:53:00
6:53 PM,77.0,70.0,79,29.94,10.0,South,9.2,-,N/A,,Scattered Clouds,190,2013-02-13 23:53:00
7:53 PM,75.9,70.0,82,29.94,10.0,SSW,9.2,-,N/A,,Partly Cloudy,200,2013-02-14 00:53:00
8:53 PM,75.0,70.0,84,29.96,9.0,SSW,4.6,-,N/A,,Scattered Clouds,210,2013-02-14 01:53:00
9:53 PM,73.9,70.0,87,29.97,8.0,South,4.6,-,N/A,,Clear,190,2013-02-14 02:53:00
10:53 PM,73.9,70.0,87,29.98,9.0,SSW,6.9,-,N/A,,Clear,210,2013-02-14 03:53:00
11:53 PM,73.0,70.0,90,29.99,9.0,SSW,4.6,-,N/A,,Partly Cloudy,200,2013-02-14 04:53:00